This is the latest recevied weather packets stored in our database for station/object NY5V. If no packets are shown the sender has not sent any weather packets the latest 10 day(s).
| Time | Temp. | Humidity | Pressure | Rain* | Wind** | Luminosity | Snow |
|---|---|---|---|---|---|---|---|
| 1777445473 | 23.89° C | 93% | 1012.2 hPa | 0 mm | - | 0 W/m² | - |
| 1777444872 | 23.89° C | 93% | 1012.6 hPa | 0 mm | - | 0 W/m² | - |
| 1777444270 | 23.89° C | 92% | 1012.8 hPa | 0 mm | - | 0 W/m² | - |
| 1777443669 | 24.44° C | 91% | 1012.4 hPa | 0 mm | - | 0 W/m² | - |
| 1777443067 | 24.44° C | 90% | 1012.5 hPa | 0 mm | - | 0 W/m² | - |
| 1777442465 | 24.44° C | 89% | 1012.6 hPa | 0 mm | - | 0 W/m² | - |
| 1777441862 | 24.44° C | 89% | 1012.3 hPa | 0 mm | - | 0 W/m² | - |
| 1777441260 | 24.44° C | 89% | 1012.2 hPa | 0 mm | - | 0 W/m² | - |
| 1777440657 | 23.89° C | 91% | 1012.1 hPa | 0 mm | - | 0 W/m² | - |
| 1777440056 | 23.89° C | 93% | 1011.6 hPa | 0 mm | - | 0 W/m² | - |
| 1777439453 | 23.89° C | 93% | 1011.6 hPa | 0 mm | - | 0 W/m² | - |
| 1777438851 | 23.89° C | 92% | 1011.4 hPa | 0 mm | - | 0 W/m² | - |
| 1777438250 | 24.44° C | 91% | 1011.3 hPa | 0 mm | - | 0 W/m² | - |
| 1777437648 | 24.44° C | 91% | 1011.6 hPa | 0 mm | - | 0 W/m² | - |
| 1777437046 | 25° C | 90% | 1011.7 hPa | 0 mm | - | 0 W/m² | - |
| 1777436445 | 25° C | 89% | 1011.8 hPa | 0 mm | - | 0 W/m² | - |
| 1777435844 | 25.56° C | 88% | 1011.7 hPa | 0 mm | - | 0 W/m² | - |
| 1777435242 | 25.56° C | 87% | 1011.7 hPa | 0 mm | - | 0 W/m² | - |
| 1777434637 | 26.11° C | 85% | 1011.4 hPa | 0 mm | - | 0 W/m² | - |
| 1777434036 | 26.67° C | 84% | 1011.5 hPa | 0 mm | - | 0 W/m² | - |
| 1777433434 | 26.67° C | 83% | 1011.3 hPa | 0 mm | - | 0 W/m² | - |
| 1777432832 | 26.67° C | 82% | 1011.3 hPa | 0 mm | - | 0 W/m² | - |
| 1777432229 | 26.67° C | 82% | 1010 hPa | 0 mm | - | 0 W/m² | - |
| 1777431626 | 27.22° C | 82% | 1010.3 hPa | 0 mm | - | 0 W/m² | - |
| 1777431023 | 26.67° C | 82% | 1009.3 hPa | 0 mm | - | 0 W/m² | - |
* Rain latest hour (hover to see other rain measurements)
** Current wind speed in m/s (hover to see current wind gust speed)